R/V Knorr Calliope CSV data file  (Time stamps are GMT)
Date, Time_GMT, Depth12, Depth35, Air_Temp, WXT5_Ta, WXT5_Pa, dec_lat, dec_lon, EDO_knt, GPS_COG, GPS_SOG, Gyro, IMET_BPR, IMET_SWR, WXT5_Ri, WXT5_Rc, HRH, WXT5_Ua, WXT5_Dm, WXT5_Sm, SBE45C, SBE45S, SBE45T, Salinity, SSCND, Fluorometer, SSTMP, SSV, Wnd_Dir, TWD_5, Wnd_Spd, TWS_5, HdChkSum=52
2008/04/05, 00:00:14, 2561.00, 0.00, 1.31, 1.90, 1004.4, 69.4512230, 14.0928150, , 54.40, 11.04, 48.00, 1005.09, -0.10, 0.0, 21.28, 74.98, 78.0, 352, 17.1, 34.98230, 34.71390, 6.9534, 34.7139, 34.9823, 193.60, 6.0511, 1474.56, 52.60, 30.1, 10.18, 11.4, 52
2008/04/05, 00:01:14, 2562.00, 0.00, 1.28, 1.80, 1004.6, 69.4533330, 14.1003180, , 51.70, 12.43, 47.20, 1005.08, -0.20, 0.0, 21.28, 76.27, 79.9, 352, 18.2, 35.20150, 34.76930, 7.1374, 34.7693, 35.2015, 166.10, 6.0481, 1474.63, 50.30, 29.7, 9.41, 12.2, 52
2008/04/05, 00:02:13, 2560.00, 0.00, 0.98, 1.80, 1004.4, 69.4553380, 14.1078420, , 55.60, 12.81, 49.20, 1005.19, -0.30, 0.0, 21.28, 75.81, 78.9, 353, 18.0, 35.30090, 34.77970, 7.2353, 34.7797, 35.3009, 154.80, 6.0293, 1474.58, 48.90, 32.8, 10.27, 11.8, 52
2008/04/05, 00:03:14, 2561.00, 0.00, 0.78, 1.60, 1004.4, 69.4572920, 14.1151580, , 52.90, 11.83, 48.00, 1005.27, -0.60, 0.0, 21.28, 76.87, 79.5, 349, 18.4, 35.36410, 34.78130, 7.3023, 34.7813, 35.3641, 150.60, 5.9929, 1474.43, 41.90, 27.5, 10.76, 13.0, 52
2008/04/05, 00:04:14, 2563.00, 0.00, 0.78, 1.50, 1004.5, 69.4593220, 14.1227530, , 52.60, 11.48, 47.00, 1005.31, -0.80, 0.0, 21.28, 78.17, 81.5, 346, 15.6, 35.42500, 34.79010, 7.3597, 34.7901, 35.4250, 149.00, 5.9349, 1474.21, 34.20, 16.9, 9.42, 10.2, 52
2008/04/05, 00:05:13, 2563.00, 0.00, 0.87, 1.50, 1004.5, 69.4613600, 14.1303280, , 49.80, 12.40, 46.80, 1005.30, -0.40, 0.0, 21.28, 79.34, 83.1, 349, 17.3, 35.44690, 34.79010, 7.3835, 34.7901, 35.4469, 148.40, 5.8652, 1473.94, 34.40, 22.5, 8.35, 11.8, 52
2008/04/05, 00:06:13, 2562.00, 0.00, 0.84, 1.50, 1004.3, 69.4634270, 14.1379370, , 55.70, 12.22, 49.70, 1005.20, -0.40, 0.0, 21.28, 79.59, 83.3, 353, 17.7, 35.40010, 34.75590, 7.3667, 34.7559, 35.4001, 157.20, 5.8126, 1473.69, 41.20, 33.3, 8.25, 11.5, 52
2008/04/05, 00:07:14, 2562.00, 0.00, 0.98, 1.50, 1004.3, 69.4654450, 14.1455700, , 53.40, 11.99, 48.50, 1005.17, -0.20, 0.0, 21.28, 79.17, 83.3, 350, 17.5, 35.37600, 34.74680, 7.3496, 34.7468, 35.3760, 152.40, 5.7784, 1473.54, 44.90, 27.6, 9.29, 12.0, 52
2008/04/05, 00:08:14, 2564.00, 0.00, 1.17, 1.60, 1004.3, 69.4674680, 14.1532020, , 53.40, 12.47, 47.10, 1005.06, 0.00, 0.0, 21.28, 78.19, 83.3, 355, 17.6, 35.29880, 34.70710, 7.3051, 34.7071, 35.2988, 155.70, 5.7568, 1473.41, 42.90, 32.0, 8.74, 11.6, 52
2008/04/05, 00:09:14, 2565.00, 0.00, 1.15, 1.70, 1004.2, 69.4694750, 14.1608230, , 52.30, 13.01, 47.90, 1004.99, 0.30, 0.0, 21.28, 75.44, 81.0, 353, 18.9, 35.23520, 34.68850, 7.2544, 34.6885, 35.2352, 160.40, 5.7449, 1473.34, 50.90, 30.5, 9.16, 12.9, 52
2008/04/05, 00:10:14, 2568.00, 0.00, 1.09, 1.70, 1004.3, 69.4714520, 14.1683370, , 53.10, 12.49, 49.10, 1005.05, 0.00, 0.0, 21.28, 74.42, 78.8, 348, 16.1, 35.13910, 34.66820, 7.1698, 34.6682, 35.1391, 171.00, 5.7435, 1473.30, 53.20, 24.5, 9.48, 10.1, 52
2008/04/05, 00:11:14, 2576.00, 0.00, 1.26, 1.70, 1004.1, 69.4734150, 14.1757830, , 51.00, 12.20, 47.10, 1005.13, 0.00, 0.0, 21.28, 73.84, 78.2, 352, 17.4, 35.03200, 34.64490, 7.0760, 34.6449, 35.0320, 195.70, 5.7463, 1473.29, 48.90, 28.0, 8.96, 11.5, 52
2008/04/05, 00:12:14, 2579.00, 0.00, 1.37, 1.80, 1004.3, 69.4754350, 14.1835620, , 53.40, 12.15, 47.70, 1004.79, -0.20, 0.0, 21.28, 74.02, 78.5, 350, 17.9, 34.93290, 34.65250, 6.9602, 34.6525, 34.9329, 227.80, 5.7469, 1473.28, 49.40, 26.6, 9.22, 12.2, 52
2008/04/05, 00:13:13, 2580.00, 0.00, 1.34, 1.80, 1004.1, 69.4774620, 14.1910700, , 53.00, 11.74, 47.30, 1004.90, 0.00, 0.0, 21.28, 74.05, 78.1, 354, 17.8, 34.92720, 34.67640, 6.9303, 34.6764, 34.9272, 211.30, 5.7471, 1473.32, 43.90, 32.4, 10.03, 12.2, 52
2008/04/05, 00:14:14, 2581.00, 0.00, 1.31, 2.00, 1004.2, 69.4794770, 14.1985780, , 52.50, 12.61, 48.50, 1004.87, 0.00, 0.0, 21.28, 76.19, 80.5, 351, 19.5, 34.92920, 34.67630, 6.9325, 34.6763, 34.9292, 201.80, 5.7485, 1473.33, 46.00, 28.9, 9.22, 13.5, 52
2008/04/05, 00:15:14, 2582.00, 0.00, 1.26, 1.90, 1004.4, 69.4814520, 14.2060300, , 52.70, 11.66, 47.80, 1005.02, -0.30, 0.0, 21.28, 77.19, 80.1, 352, 17.0, 34.92330, 34.67010, 6.9323, 34.6701, 34.9233, 193.00, 5.7496, 1473.33, 40.50, 29.0, 9.99, 11.4, 52
2008/04/05, 00:16:14, 2584.00, 0.00, 1.23, 1.80, 1004.1, 69.4835350, 14.2137250, , 50.70, 11.98, 47.40, 1004.90, -0.10, 0.0, 21.28, 77.34, 80.7, 354, 19.0, 34.92940, 34.66350, 6.9456, 34.6635, 34.9294, 190.50, 5.7458, 1473.30, 40.70, 32.3, 9.58, 13.3, 52
2008/04/05, 00:17:14, 2585.00, 0.00, 1.28, 1.80, 1004.2, 69.4855450, 14.2214830, , 55.10, 12.19, 48.90, 1005.06, 0.10, 0.0, 21.28, 76.27, 80.2, 355, 17.6, 34.94690, 34.66380, 6.9643, 34.6638, 34.9469, 189.00, 5.7385, 1473.27, 54.00, 36.5, 9.15, 11.3, 52
2008/04/05, 00:18:14, 2592.00, 0.00, 1.28, 1.80, 1004.3, 69.4875900, 14.2291470, , 53.40, 11.74, 48.10, 1005.10, 0.10, 0.0, 21.28, 76.27, 79.8, 354, 15.2, 34.96320, 34.66830, 6.9777, 34.6683, 34.9632, 195.10, 5.7268, 1473.23, 54.40, 32.7, 9.23, 9.4, 52
2008/04/05, 00:19:14, 2582.00, 0.00, 1.34, 1.90, 1004.2, 69.4895620, 14.2368150, , 57.60, 11.98, 49.90, 1004.91, 0.00, 0.0, 21.28, 75.13, 79.4, 349, 16.1, 34.95910, 34.66620, 6.9753, 34.6662, 34.9591, 206.70, 5.7124, 1473.17, 58.70, 25.0, 8.51, 10.0, 52
2008/04/05, 00:20:14, 2580.00, 0.00, 1.40, 1.80, 1004.3, 69.4916080, 14.2446780, , 49.40, 11.55, 46.40, 1004.95, 0.10, 0.0, 21.28, 73.77, 78.0, 355, 15.2, 34.95860, 34.66230, 6.9786, 34.6623, 34.9586, 209.20, 5.6993, 1473.12, 55.40, 33.1, 9.19, 9.7, 52
2008/04/05, 00:21:14, 2580.00, 0.00, 1.31, 1.80, 1004.5, 69.4937220, 14.2519580, , 52.20, 13.07, 47.60, 1005.12, 0.10, 0.0, 21.28, 72.30, 75.7, 354, 14.9, 34.96820, 34.66320, 6.9881, 34.6632, 34.9682, 207.00, 5.7080, 1473.15, 65.00, 31.9, 8.40, 9.1, 52
2008/04/05, 00:22:14, 2576.00, 0.00, 1.42, 1.90, 1004.3, 69.4958630, 14.2595800, , 48.60, 12.27, 47.10, 1004.82, 0.20, 0.0, 21.28, 73.34, 78.0, 354, 16.4, 34.97930, 34.66400, 6.9995, 34.6640, 34.9793, 210.40, 5.7522, 1473.33, 63.30, 32.3, 7.97, 10.5, 52
2008/04/05, 00:23:14, 2576.00, 0.00, 1.56, 1.90, 1004.4, 69.4980570, 14.2671170, , 50.10, 12.07, 49.40, 1005.07, 0.10, 0.0, 21.28, 73.67, 76.4, 358, 16.5, 34.97040, 34.66700, 6.9868, 34.6670, 34.9704, 214.70, 5.8079, 1473.55, 64.50, 41.9, 8.05, 10.4, 52
2008/04/05, 00:24:13, 2579.00, 0.00, 1.51, 2.00, 1004.2, 69.5001670, 14.2746500, , 52.10, 13.00, 48.00, 1005.03, 0.20, 0.0, 21.28, 74.60, 77.7, 353, 17.9, 34.95240, 34.67070, 6.9635, 34.6707, 34.9524, 218.30, 5.8640, 1473.78, 57.60, 30.4, 7.79, 11.5, 52
2008/04/05, 00:25:14, 2574.00, 0.00, 1.40, 2.10, 1004.3, 69.5022970, 14.2824020, , 52.00, 12.23, 48.00, 1004.87, 0.00, 0.0, 21.28, 76.42, 79.7, 350, 18.0, 34.93570, 34.67740, 6.9386, 34.6774, 34.9357, 222.60, 5.9150, 1473.99, 57.20, 28.0, 9.58, 12.0, 52
2008/04/05, 00:26:14, 2574.00, 0.00, 1.28, 1.90, 1004.2, 69.5043180, 14.2898650, , 53.40, 12.68, 48.50, 1004.87, -0.30, 0.0, 21.28, 77.02, 79.8, 351, 17.9, 34.92260, 34.68570, 6.9160, 34.6857, 34.9226, 217.10, 5.9586, 1474.18, 54.00, 30.0, 9.66, 12.0, 52
2008/04/05, 00:27:14, 2573.00, 0.00, 1.12, 1.80, 1004.3, 69.5064350, 14.2975220, , 51.60, 12.49, 48.40, 1005.19, -0.60, 0.0, 21.28, 77.99, 80.5, 349, 16.5, 34.94890, 34.71490, 6.9159, 34.7149, 34.9489, 202.80, 5.9948, 1474.34, 49.80, 25.0, 8.68, 10.6, 52
2008/04/05, 00:28:13, 2567.00, 0.00, 1.01, 1.60, 1004.4, 69.5085570, 14.3051020, , 49.80, 12.45, 48.00, 1005.09, -0.60, 0.0, 21.28, 78.32, 81.6, 352, 17.1, 35.05800, 34.78450, 6.9662, 34.7845, 35.0580, 191.80, 6.0291, 1474.57, 50.30, 29.5, 8.44, 11.3, 52
2008/04/05, 00:29:13, 2564.00, 0.00, 1.17, 1.60, 1004.4, 69.5106550, 14.3128150, , 52.40, 11.97, 47.60, 1005.21, -0.30, 0.0, 21.28, 78.92, 82.7, 347, 15.1, 35.17770, 34.81190, 7.0693, 34.8119, 35.1777, 184.40, 6.0615, 1474.74, 51.90, 19.3, 7.59, 9.7, 52
2008/04/05, 00:30:14, 2561.00, 0.00, 1.03, 1.70, 1004.5, 69.5127130, 14.3204830, , 52.00, 12.47, 48.20, 1005.27, -0.20, 0.0, 21.28, 78.77, 82.9, 355, 17.0, 35.27140, 34.81560, 7.1677, 34.8156, 35.2714, 176.50, 6.0919, 1474.87, 46.70, 32.2, 6.46, 10.6, 52
2008/04/05, 00:31:14, 2551.00, 0.00, 1.09, 1.60, 1004.3, 69.5148470, 14.3283000, , 53.30, 11.48, 48.00, 1005.10, 0.00, 0.0, 21.28, 78.27, 82.3, 352, 16.1, 35.32130, 34.81360, 7.2237, 34.8136, 35.3213, 172.00, 6.1140, 1474.96, 49.30, 31.2, 8.00, 10.2, 52
2008/04/05, 00:32:14, 2551.00, 0.00, 1.12, 1.60, 1004.1, 69.5169000, 14.3357870, , 49.60, 12.79, 47.20, 1005.21, -0.20, 0.0, 21.28, 78.34, 83.2, 354, 16.6, 35.36580, 34.80710, 7.2786, 34.8071, 35.3658, 166.80, 6.1259, 1475.00, 49.00, 30.2, 7.03, 10.3, 52
2008/04/05, 00:33:14, 2549.00, 0.00, 1.17, 1.60, 1004.4, 69.5190650, 14.3435020, , 48.60, 12.26, 47.10, 1005.30, 0.00, 0.0, 21.28, 78.47, 82.9, 351, 15.7, 35.39360, 34.80630, 7.3096, 34.8063, 35.3936, 166.10, 6.1359, 1475.03, 55.90, 24.4, 6.70, 9.7, 52
2008/04/05, 00:34:14, 2542.00, 0.00, 1.09, 1.70, 1004.4, 69.5212330, 14.3511380, , 53.60, 12.86, 49.50, 1005.13, 0.00, 0.0, 21.28, 78.69, 83.6, 348, 16.3, 35.42480, 34.80940, 7.3404, 34.8094, 35.4248, 162.20, 6.1424, 1475.06, 57.40, 26.4, 6.68, 10.2, 52
2008/04/05, 00:35:13, 2541.00, 0.00, 1.09, 1.70, 1004.4, 69.5233670, 14.3587680, , 52.30, 12.68, 48.50, 1005.22, 0.10, 0.0, 21.28, 78.64, 83.3, 350, 16.4, 35.45140, 34.81680, 7.3618, 34.8168, 35.4514, 159.40, 6.1438, 1475.08, 47.50, 27.0, 7.63, 10.2, 52
2008/04/05, 00:36:14, 2539.00, 0.00, 1.26, 1.80, 1004.3, 69.5254820, 14.3663220, , 53.80, 12.95, 48.00, 1005.04, 0.00, 0.0, 21.28, 78.92, 83.9, 354, 16.4, 35.49290, 34.82710, 7.3966, 34.8271, 35.4929, 154.00, 6.1504, 1475.11, 48.20, 31.3, 7.32, 9.9, 52
2008/04/05, 00:37:14, 2538.00, 0.00, 1.42, 1.90, 1004.4, 69.5276170, 14.3742570, , 52.10, 12.76, 48.10, 1005.01, 0.40, 0.0, 21.28, 79.24, 84.4, 357, 15.1, 35.51960, 34.83770, 7.4150, 34.8377, 35.5196, 150.60, 6.1671, 1475.19, 69.30, 34.3, 7.16, 8.9, 52
2008/04/05, 00:38:14, 2537.00, 0.00, 1.31, 1.90, 1004.1, 69.5297230, 14.3819800, , 53.90, 11.73, 50.00, 1005.04, 0.30, 0.0, 21.28, 75.99, 80.8, 5, 16.6, 35.53860, 34.84860, 7.4247, 34.8486, 35.5386, 156.70, 6.1998, 1475.33, 73.40, 52.5, 7.46, 10.4, 52
2008/04/05, 00:39:13, 2534.00, 0.00, 1.37, 1.80, 1004.4, 69.5317680, 14.3895300, , 48.80, 12.91, 47.50, 1005.13, 0.10, 0.0, 21.28, 75.71, 79.9, 0, 15.7, 35.53710, 34.85700, 7.4148, 34.8570, 35.5371, 161.20, 6.2306, 1475.47, 81.30, 41.5, 9.63, 9.6, 52
2008/04/05, 00:40:14, 2530.00, 0.00, 1.15, 1.80, 1004.1, 69.5339350, 14.3971300, , 52.50, 12.47, 48.10, 1004.90, -0.10, 0.0, 21.28, 75.03, 78.8, 3, 16.4, 35.54640, 34.86450, 7.4175, 34.8645, 35.5464, 157.60, 6.2495, 1475.55, 82.40, 49.0, 8.98, 10.2, 52
2008/04/05, 00:41:14, 2529.00, 0.00, 1.20, 1.70, 1004.3, 69.5360230, 14.4047350, , 53.90, 12.66, 47.80, 1005.12, -0.20, 0.0, 21.28, 75.48, 79.7, 357, 15.6, 35.55630, 34.87890, 7.4139, 34.8789, 35.5563, 168.30, 6.2624, 1475.62, 77.90, 36.5, 9.14, 9.4, 52
2008/04/05, 00:42:14, 2529.00, 0.00, 1.20, 1.70, 1004.3, 69.5381470, 14.4122230, , 53.80, 11.82, 47.10, 1004.99, -0.20, 0.0, 21.28, 74.42, 78.5, 358, 15.9, 35.54540, 34.87390, 7.4071, 34.8739, 35.5454, 170.70, 6.2719, 1475.65, 83.50, 41.1, 8.40, 9.7, 52
2008/04/05, 00:43:14, 2526.00, 0.00, 1.26, 1.70, 1004.2, 69.5403020, 14.4196450, , 50.60, 11.99, 48.40, 1005.14, 0.10, 0.0, 21.28, 74.27, 78.8, 356, 16.6, 35.56350, 34.88190, 7.4188, 34.8819, 35.5635, 165.80, 6.2773, 1475.68, 70.90, 36.6, 8.76, 10.5, 52
2008/04/05, 00:44:14, 2524.00, 0.00, 1.31, 1.70, 1004.2, 69.5425130, 14.4269050, , 49.20, 12.66, 47.80, 1004.74, -0.10, 0.0, 21.28, 72.80, 76.4, 354, 15.8, 35.63290, 34.90330, 7.4725, 34.9033, 35.6329, 152.10, 6.2794, 1475.71, 62.80, 33.4, 8.99, 9.4, 52
2008/04/05, 00:45:14, 2524.00, 0.00, 1.37, 1.80, 1004.1, 69.5446500, 14.4339170, , 47.00, 11.83, 47.50, 1005.24, 0.10, 0.0, 21.28, 72.86, 76.4, 0, 18.4, 35.71230, 34.93610, 7.5259, 34.9361, 35.7123, 139.20, 6.2835, 1475.76, 60.90, 42.8, 8.30, 12.2, 52
2008/04/05, 00:46:14, 2523.00, 0.00, 1.31, 1.80, 1004.2, 69.5469070, 14.4411670, , 49.00, 12.30, 47.80, 1005.13, 0.00, 0.0, 21.28, 72.80, 76.3, 356, 15.3, 35.76430, 34.96560, 7.5528, 34.9656, 35.7643, 137.50, 6.2892, 1475.83, 68.30, 37.8, 8.60, 8.9, 52
2008/04/05, 00:47:13, 2520.00, 0.00, 1.40, 1.80, 1004.3, 69.5490720, 14.4481420, , 44.00, 12.36, 47.10, 1005.13, -0.10, 0.0, 21.28, 72.42, 75.5, 357, 15.8, 35.79310, 34.99440, 7.5552, 34.9944, 35.7931, 130.40, 6.2885, 1475.86, 67.10, 38.6, 8.74, 9.9, 52
2008/04/05, 00:48:14, 2520.00, 0.00, 1.40, 1.90, 1004.2, 69.5513530, 14.4549970, , 49.90, 12.47, 48.90, 1005.23, 0.20, 0.0, 21.28, 72.12, 75.4, 2, 16.0, 35.79740, 35.00030, 7.5540, 35.0003, 35.7974, 121.60, 6.2833, 1475.86, 77.00, 49.6, 9.12, 10.2, 52
2008/04/05, 00:49:14, 2519.00, 0.00, 1.42, 1.90, 1004.5, 69.5537050, 14.4620680, , 41.10, 10.48, 48.60, 1004.94, 0.10, 0.0, 21.28, 70.89, 74.0, 1, 14.1, 35.80960, 35.00520, 7.5623, 35.0052, 35.8096, 118.80, 6.2776, 1475.84, 82.00, 50.5, 9.16, 8.4, 52
2008/04/05, 00:50:13, 2519.00, 0.00, 1.56, 2.00, 1004.3, 69.5560650, 14.4689320, , 40.40, 11.34, 46.40, 1004.94, 0.20, 0.0, 21.28, 72.75, 75.7, 356, 14.7, 35.79640, 35.00040, 7.5529, 35.0004, 35.7964, 128.30, 6.2756, 1475.83, 80.80, 38.6, 7.60, 8.8, 52
2008/04/05, 00:51:14, 2516.00, 0.00, 1.59, 2.10, 1004.1, 69.5584480, 14.4755570, , 42.80, 12.43, 48.00, 1004.95, 0.20, 0.0, 21.28, 71.91, 75.6, 359, 15.6, 35.79630, 34.99230, 7.5607, 34.9923, 35.7963, 133.50, 6.2604, 1475.76, 74.70, 41.7, 8.03, 9.4, 52
2008/04/05, 00:52:14, 2514.00, 0.00, 1.56, 2.10, 1004.2, 69.5607230, 14.4823070, , 41.70, 12.35, 48.00, 1004.79, 0.40, 0.0, 21.28, 70.15, 73.8, 2, 15.8, 35.79010, 34.99190, 7.5544, 34.9919, 35.7901, 132.50, 6.2265, 1475.62, 76.20, 50.2, 9.09, 10.0, 52
2008/04/05, 00:53:14, 2511.00, 0.00, 1.81, 2.10, 1004.1, 69.5629970, 14.4890270, , 45.50, 12.11, 50.10, 1005.06, 0.20, 0.0, 21.28, 70.38, 72.0, 359, 15.5, 35.80310, 34.99980, 7.5607, 34.9998, 35.8031, 121.20, 6.1884, 1475.48, 78.40, 46.7, 8.78, 9.3, 52
2008/04/05, 00:54:14, 2509.00, 0.00, 1.81, 2.30, 1004.3, 69.5653250, 14.4955070, , 42.90, 12.29, 48.30, 1005.00, 0.10, 0.0, 21.28, 71.02, 73.7, 3, 16.3, 35.78610, 34.99760, 7.5446, 34.9976, 35.7861, 133.50, 6.1470, 1475.32, 73.10, 50.4, 8.44, 10.5, 52
2008/04/05, 00:55:14, 2507.00, 0.00, 1.73, 2.30, 1004.2, 69.5677520, 14.5018970, , 44.60, 10.88, 49.30, 1005.22, 0.10, 0.0, 21.28, 70.05, 72.5, 0, 15.6, 35.76180, 34.98480, 7.5310, 34.9848, 35.7618, 138.70, 6.1067, 1475.15, 81.00, 46.9, 8.96, 9.6, 52
2008/04/05, 00:56:14, 2504.00, 0.00, 1.62, 2.30, 1004.1, 69.5701050, 14.5082530, , 38.00, 12.28, 47.70, 1004.80, -0.10, 0.0, 21.28, 69.08, 72.1, 1, 15.9, 35.72640, 34.96370, 7.5136, 34.9637, 35.7264, 148.10, 6.0753, 1475.00, 83.80, 47.3, 8.54, 9.4, 52
2008/04/05, 00:57:14, 2500.00, 0.00, 1.62, 2.20, 1004.4, 69.5726230, 14.5144720, , 36.90, 11.60, 47.50, 1005.18, -0.10, 0.0, 21.28, 69.08, 69.7, 359, 16.1, 35.71440, 34.95320, 7.5111, 34.9532, 35.7144, 148.40, 6.0598, 1474.92, 81.20, 49.1, 9.83, 10.1, 52
2008/04/05, 00:58:14, 2495.00, 0.00, 1.65, 2.20, 1004.3, 69.5751520, 14.5210230, , 39.20, 11.43, 48.50, 1005.08, -0.10, 0.0, 21.28, 68.51, 69.9, 358, 16.3, 35.60630, 34.89550, 7.4516, 34.8955, 35.6063, 167.10, 6.0495, 1474.83, 72.00, 46.1, 9.34, 10.4, 52
2008/04/05, 00:59:14, 2492.00, 0.00, 1.67, 2.20, 1004.2, 69.5776570, 14.5272730, , 42.50, 11.63, 46.90, 1004.74, -0.30, 0.0, 21.28, 68.33, 69.9, 357, 16.5, 35.50970, 34.85800, 7.3842, 34.8580, 35.5097, 179.60, 6.0397, 1474.73, 72.70, 45.8, 9.38, 10.4, 52
2008/04/05, 01:00:14, 2490.00, 0.00, 1.76, 2.20, 1004.2, 69.5801980, 14.5333800, , 34.10, 12.19, 49.80, 1005.08, -0.30, 0.0, 21.28, 68.33, 68.3, 355, 15.5, 35.42850, 34.82650, 7.3274, 34.8265, 35.4285, 187.20, 6.0034, 1474.55, 74.10, 42.2, 9.85, 9.7, 52
2008/04/05, 01:01:14, 2488.00, 0.00, 1.62, 2.20, 1004.1, 69.5827420, 14.5394530, , 40.80, 12.34, 48.00, 1004.74, -0.10, 0.0, 21.28, 67.76, 69.6, 359, 15.6, 35.34300, 34.78630, 7.2744, 34.7863, 35.3430, 194.80, 5.9384, 1474.24, 76.30, 51.1, 9.09, 9.3, 52
2008/04/05, 01:02:14, 2486.00, 0.00, 1.65, 2.20, 1004.0, 69.5853380, 14.5453730, , 38.60, 11.40, 46.60, 1004.91, -0.30, 0.0, 21.28, 67.92, 69.5, 1, 16.0, 35.26710, 34.74700, 7.2310, 34.7470, 35.2671, 201.20, 5.8646, 1473.89, 82.10, 51.2, 9.20, 10.0, 52
2008/04/05, 01:03:14, 2484.00, 0.00, 1.70, 2.20, 1004.2, 69.5880050, 14.5513800, , 39.80, 12.50, 47.30, 1004.96, 0.00, 0.0, 21.28, 68.05, 71.0, 353, 17.0, 35.24640, 34.73400, 7.2214, 34.7340, 35.2464, 200.90, 5.7975, 1473.60, 84.10, 37.3, 8.35, 10.3, 52
2008/04/05, 01:04:14, 2482.00, 0.00, 1.87, 2.30, 1004.3, 69.5906600, 14.5572900, , 32.80, 12.04, 46.70, 1004.86, -0.20, 0.0, 21.28, 69.54, 69.7, 354, 16.6, 35.23270, 34.71670, 7.2237, 34.7167, 35.2327, 198.40, 5.7489, 1473.39, 66.90, 37.0, 8.85, 10.3, 52
2008/04/05, 01:05:14, 2480.00, 0.00, 1.73, 2.30, 1004.3, 69.5933200, 14.5633430, , 40.80, 12.04, 49.90, 1005.09, -0.10, 0.0, 21.28, 67.63, 68.8, 354, 15.9, 35.19600, 34.66050, 7.2396, 34.6605, 35.1960, 200.90, 5.7231, 1473.22, 69.20, 42.2, 9.23, 9.9, 52
2008/04/05, 01:06:14, 2479.00, 0.00, 1.73, 2.30, 1004.2, 69.5958700, 14.5694670, , 39.90, 12.28, 47.10, 1005.06, -0.10, 0.0, 21.28, 66.37, 67.8, 353, 15.0, 35.13400, 34.61660, 7.2155, 34.6166, 35.1340, 204.00, 5.7146, 1473.14, 72.40, 39.3, 8.70, 8.4, 52
2008/04/05, 01:07:14, 2479.00, 0.00, 1.70, 2.20, 1004.3, 69.5984730, 14.5756980, , 39.60, 11.47, 48.60, 1005.17, 0.00, 0.0, 21.28, 67.14, 67.8, 358, 17.1, 34.86290, 34.42710, 7.1080, 34.4271, 34.8629, 198.80, 5.7058, 1472.92, 65.90, 47.0, 9.08, 11.0, 52
2008/04/05, 01:08:13, 2478.00, 0.00, 1.81, 2.20, 1004.4, 69.6011150, 14.5820030, , 40.50, 12.73, 49.40, 1004.95, 0.00, 0.0, 21.28, 69.36, 69.4, 350, 18.0, 34.67640, 34.33460, 6.9955, 34.3346, 34.6764, 189.30, 5.6879, 1472.68, 70.60, 33.2, 8.73, 12.0, 52
2008/04/05, 01:09:13, 2477.00, 0.00, 1.73, 2.30, 1004.4, 69.6036830, 14.5882300, , 37.10, 11.51, 47.40, 1004.55, -0.10, 0.0, 21.28, 68.95, 69.5, 355, 16.6, 34.52380, 34.26220, 6.8996, 34.2622, 34.5238, 180.80, 5.6606, 1472.47, 68.00, 38.0, 8.74, 10.5, 52
2008/04/05, 01:10:14, 2476.00, 0.00, 1.67, 2.20, 1004.3, 69.6062830, 14.5944870, , 37.80, 12.36, 48.50, 1005.02, -0.20, 0.0, 21.28, 69.25, 70.1, 350, 16.0, 34.43720, 34.22590, 6.8402, 34.2259, 34.4372, 167.30, 5.6226, 1472.26, 61.30, 31.7, 9.08, 9.6, 52
2008/04/05, 01:11:14, 2476.00, 0.00, 1.78, 2.20, 1004.3, 69.6088520, 14.6007770, , 41.90, 12.47, 49.20, 1004.92, -0.20, 0.0, 21.28, 69.72, 70.9, 357, 16.4, 34.41980, 34.21620, 6.8307, 34.2162, 34.4198, 159.70, 5.5822, 1472.08, 62.30, 45.1, 8.80, 10.4, 52
2008/04/05, 01:12:14, 2475.00, 0.00, 1.70, 2.20, 1004.4, 69.6113720, 14.6070100, , 38.80, 11.76, 47.00, 1004.87, 0.10, 0.0, 21.28, 68.12, 69.4, 359, 17.3, 34.43440, 34.21950, 6.8436, 34.2195, 34.4344, 152.10, 5.5423, 1471.92, 63.50, 44.7, 8.21, 11.0, 52
2008/04/05, 01:13:14, 2473.00, 0.00, 1.65, 2.20, 1004.3, 69.6139180, 14.6133450, , 42.40, 11.77, 50.40, 1004.96, -0.20, 0.0, 21.28, 69.05, 69.9, 351, 15.2, 34.48240, 34.23160, 6.8846, 34.2316, 34.4824, 149.60, 5.5111, 1471.81, 71.40, 35.9, 9.01, 9.0, 52
2008/04/05, 01:14:14, 2471.00, 0.00, 1.73, 2.20, 1004.2, 69.6164280, 14.6197380, , 41.60, 11.72, 49.20, 1004.96, -0.10, 0.0, 21.28, 69.25, 70.3, 356, 18.5, 34.45490, 34.22070, 6.8650, 34.2207, 34.4549, 151.20, 5.4945, 1471.74, 74.90, 41.6, 8.74, 11.9, 52
2008/04/05, 01:15:14, 2468.00, 0.00, 1.62, 2.20, 1004.3, 69.6189070, 14.6262000, , 40.40, 11.90, 48.10, 1005.07, -0.10, 0.0, 21.28, 69.49, 70.4, 359, 15.6, 34.41780, 34.20080, 6.8439, 34.2008, 34.4178, 152.10, 5.4918, 1471.71, 74.70, 49.1, 9.37, 9.3, 52
2008/04/05, 01:16:14, 2466.00, 0.00, 1.62, 2.20, 1004.3, 69.6214380, 14.6326500, , 44.10, 12.20, 49.40, 1004.93, 0.10, 0.0, 21.28, 69.49, 72.2, 358, 19.1, 34.34100, 34.16960, 6.7901, 34.1696, 34.3410, 152.40, 5.4993, 1471.70, 71.90, 45.7, 9.65, 12.7, 52
2008/04/05, 01:17:14, 2462.00, 0.00, 1.65, 2.20, 1004.4, 69.6238720, 14.6389130, , 41.20, 11.19, 48.50, 1004.73, -0.10, 0.0, 21.28, 70.33, 70.0, 0, 17.5, 34.25380, 34.13750, 6.7256, 34.1375, 34.2538, 150.00, 5.5033, 1471.67, 73.00, 47.1, 10.32, 11.2, 52
2008/04/05, 01:18:14, 2454.00, 0.00, 1.40, 2.00, 1004.1, 69.6263250, 14.6452150, , 40.00, 11.29, 48.00, 1005.15, -0.10, 0.0, 21.28, 68.48, 68.4, 1, 16.9, 34.19550, 34.12210, 6.6763, 34.1221, 34.1955, 151.20, 5.4988, 1471.63, 74.70, 47.8, 10.05, 10.7, 52
2008/04/05, 01:19:14, 2459.00, 0.00, 1.53, 2.00, 1004.2, 69.6286600, 14.6513700, , 43.50, 11.52, 47.80, 1005.02, -0.10, 0.0, 21.28, 68.28, 70.7, 1, 16.6, 34.15190, 34.10670, 6.6433, 34.1067, 34.1519, 148.40, 5.4883, 1471.57, 77.50, 48.8, 10.42, 10.8, 52
2008/04/05, 01:20:14, 2457.00, 0.00, 1.48, 2.00, 1004.0, 69.6310880, 14.6577030, , 40.90, 10.70, 50.60, 1005.00, -0.30, 0.0, 21.28, 69.20, 69.8, 3, 17.7, 34.13960, 34.10660, 6.6298, 34.1066, 34.1396, 148.80, 5.4880, 1471.56, 76.80, 52.7, 11.00, 12.3, 52
2008/04/05, 01:21:13, 2456.00, 0.00, 1.26, 2.00, 1004.3, 69.6334400, 14.6640450, , 42.10, 10.46, 49.90, 1004.87, -0.30, 0.0, 21.28, 68.59, 71.2, 357, 16.5, 34.15740, 34.11170, 6.6444, 34.1117, 34.1574, 141.10, 5.5049, 1471.64, 84.90, 42.9, 9.45, 9.6, 52
2008/04/05, 01:22:14, 2455.00, 0.00, 1.59, 2.10, 1004.3, 69.6356730, 14.6705420, , 51.20, 11.75, 54.60, 1004.94, 0.00, 0.0, 21.28, 70.02, 72.3, 356, 15.7, 34.21000, 34.12190, 6.6926, 34.1219, 34.2100, 135.30, 5.5323, 1471.76, 78.40, 49.3, 9.90, 9.9, 52
2008/04/05, 01:23:14, 2451.00, 0.00, 1.59, 2.10, 1004.4, 69.6377880, 14.6774830, , 48.70, 12.00, 52.80, 1005.06, -0.10, 0.0, 21.28, 70.97, 74.7, 359, 16.1, 34.24570, 34.13780, 6.7163, 34.1378, 34.2457, 121.20, 5.5691, 1471.93, 75.60, 51.4, 8.82, 10.0, 52
2008/04/05, 01:24:14, 2448.00, 0.00, 1.73, 2.20, 1004.1, 69.6399030, 14.6844470, , 49.90, 11.94, 54.10, 1004.93, 0.10, 0.0, 21.28, 72.91, 73.9, 358, 17.4, 34.23010, 34.13860, 6.6982, 34.1386, 34.2301, 111.80, 5.5914, 1472.02, 86.20, 48.2, 9.92, 11.3, 52
2008/04/05, 01:25:14, 2444.00, 0.00, 1.53, 2.10, 1004.3, 69.6419520, 14.6912700, , 49.80, 12.82, 52.90, 1004.75, 0.10, 0.0, 21.28, 71.58, 73.2, 355, 15.9, 34.21560, 34.13750, 6.6832, 34.1375, 34.2156, 109.50, 5.5896, 1472.01, 74.20, 43.1, 9.83, 10.0, 52
2008/04/05, 01:26:14, 2437.00, 0.00, 1.70, 2.20, 1004.3, 69.6440950, 14.6980800, , 46.60, 11.68, 52.10, 1004.71, 0.00, 0.0, 21.28, 71.89, 73.4, 358, 16.2, 34.20250, 34.14160, 6.6646, 34.1416, 34.2025, 108.90, 5.5922, 1472.02, 71.10, 47.1, 9.66, 10.1, 52
2008/04/05, 01:27:13, 2433.00, 0.00, 1.53, 2.10, 1004.3, 69.6462880, 14.7052750, , 50.40, 12.07, 52.50, 1004.89, -0.10, 0.0, 21.28, 70.89, 73.0, 359, 17.4, 34.26010, 34.16900, 6.7011, 34.1690, 34.2601, 104.60, 5.6081, 1472.12, 79.40, 49.5, 9.77, 11.1, 52
2008/04/05, 01:28:13, 2430.00, 0.00, 1.56, 2.10, 1004.3, 69.6484270, 14.7124120, , 50.20, 12.56, 52.70, 1004.89, 0.10, 0.0, 21.28, 70.43, 72.0, 357, 18.3, 34.32330, 34.19680, 6.7433, 34.1968, 34.3233, 98.20, 5.6260, 1472.23, 72.60, 45.5, 9.64, 11.8, 52
2008/04/05, 01:29:14, 2425.00, 0.00, 1.56, 2.00, 1004.2, 69.6505230, 14.7195270, , 48.50, 11.14, 54.00, 1005.07, -0.10, 0.0, 21.28, 69.64, 70.7, 359, 16.0, 34.39900, 34.22340, 6.8005, 34.2234, 34.3990, 95.20, 5.6376, 1472.30, 81.20, 50.0, 10.44, 10.2, 52
2008/04/05, 01:30:14, 2427.00, 0.00, 1.53, 2.00, 1004.2, 69.6525500, 14.7267220, , 48.10, 11.79, 53.50, 1004.92, 0.10, 0.0, 21.28, 69.74, 72.2, 1, 18.5, 34.46970, 34.24310, 6.8589, 34.2431, 34.4697, 96.40, 5.6412, 1472.35, 79.40, 53.4, 10.08, 12.8, 52
2008/04/05, 01:31:14, 2423.00, 0.00, 1.51, 2.10, 1004.4, 69.6546580, 14.7341470, , 50.30, 12.16, 53.70, 1005.06, 0.10, 0.0, 21.28, 69.54, 71.8, 354, 16.7, 34.44370, 34.22720, 6.8461, 34.2272, 34.4437, 118.50, 5.6411, 1472.34, 79.30, 41.9, 10.43, 10.6, 52